Back to catalog

CZ-6A DEB

AliveSSO
NORAD 55871·DEBRIS·🇨🇳 China

Launched Nov 11, 2022 from Taiyuan Satellite Launch Center

Loading…

Next Passes (next 24 hours)

TLE

FreshSource: Space-Track

Epoch: Sep 14, 2026, 00:43 UTC

1 55871U 22151ZT  26257.03035476  .00001446  00000-0  65981-3 0  9994
2 55871  98.7983 271.7930 0024193  31.8599 328.4037 14.23013178186535

Track CZ-6A DEB in real time with AllMySat

Download on the App Store